Retour au catalogue

COSMOS 970 DEB

ActifLEO
NORAD 10566·DEBRIS·🇷🇺 Russia

Lancé Dec 21, 1977 depuis Baikonur Cosmodrome

Loading…

Prochains Passages (prochaines 24 heures)

TLE

FraisSource: Space-Track

Époque: Sep 14, 2026, 18:32 UTC

1 10566U 77121H   26257.77285923  .00000315  00000-0  55176-3 0  9997
2 10566  65.7691  32.5466 0409930 217.8866 139.2669 13.26644501340851

Suivez COSMOS 970 DEB en temps réel avec AllMySat

Download on the App Store